This is the latest recevied weather packets stored in our database for station/object WA0GMH-1. If no packets are shown the sender has not sent any weather packets the latest 10 day(s).
| Time | Temp. | Humidity | Pressure | Rain* | Wind** | Luminosity | Snow |
|---|---|---|---|---|---|---|---|
| 1778113398 | 15.56° C | 59% | 1014.7 hPa | 0 mm | - | - | - |
| 1778112995 | 15.56° C | 59% | 1014.7 hPa | 0 mm | - | - | - |
| 1778112593 | 16.11° C | 59% | 1014.7 hPa | 0 mm | - | - | - |
| 1778112191 | 16.11° C | 59% | 1014.7 hPa | 0 mm | - | - | - |
| 1778111789 | 16.11° C | 57% | 1014.8 hPa | 0 mm | - | - | - |
| 1778111386 | 16.67° C | 57% | 1014.9 hPa | 0 mm | - | - | - |
| 1778110984 | 16.67° C | 57% | 1015.1 hPa | 0 mm | - | - | - |
| 1778110582 | 17.22° C | 57% | 1014.9 hPa | 0 mm | - | - | - |
| 1778110180 | 17.22° C | 57% | 1014.9 hPa | 0 mm | - | - | - |
| 1778109777 | 17.22° C | 57% | 1014.9 hPa | 0 mm | - | - | - |
| 1778109375 | 17.78° C | 55% | 1015.2 hPa | 0 mm | - | - | - |
| 1778108973 | 18.33° C | 57% | 1015.2 hPa | 0 mm | - | - | - |
| 1778108571 | 17.78° C | 60% | 1014.9 hPa | 0 mm | - | - | - |
| 1778108168 | 17.22° C | 59% | 1015 hPa | 0 mm | - | - | - |
| 1778107766 | 17.22° C | 58% | 1015 hPa | 0 mm | - | - | - |
| 1778107364 | 17.78° C | 58% | 1015.1 hPa | 0 mm | - | - | - |
| 1778106962 | 17.78° C | 59% | 1015.2 hPa | 0 mm | - | - | - |
| 1778106559 | 17.22° C | 57% | 1015.3 hPa | 0 mm | - | - | - |
| 1778106157 | 17.78° C | 57% | 1015.3 hPa | 0 mm | - | - | - |
| 1778105755 | 17.78° C | 59% | 1015.3 hPa | 0 mm | - | - | - |
| 1778105353 | 17.22° C | 59% | 1015.6 hPa | 0 mm | - | - | - |
| 1778104950 | 17.22° C | 59% | 1015.6 hPa | 0 mm | - | - | - |
| 1778104548 | 17.22° C | 57% | 1015.5 hPa | 0 mm | - | - | - |
| 1778104146 | 17.78° C | 57% | 1015.5 hPa | 0 mm | - | - | - |
| 1778103744 | 17.78° C | 57% | 1015.7 hPa | 0 mm | - | - | - |
* Rain since midnight (hover to see other rain measurements)
** Current wind speed in m/s (hover to see current wind gust speed)